YD2APR-13 Weather Reports


time (UTC)temp
C
wind
direction
speed
KPH
gust
KPH
rain 1hr
cm
rain 24hr
cm
rain mn
cm
humidity
%
barometer
mb
20260502221001 21 0.0 0.0 0.00 0.00 0.00 88 1014.3
20260502220001 22 0.0 0.0 0.00 0.00 0.00 90 1014.2
20260502215001 23 0.0 0.0 0.00 0.00 0.00 92 1014.4
20260502214001 23 0.0 0.0 0.00 0.00 0.00 91 1014.4
20260502213001 23 0.0 0.0 0.00 0.00 0.00 91 1014.4
20260502212001 23 0.0 0.0 0.00 0.00 0.00 92 1014.4
20260502211001 23 0.0 0.0 0.00 0.00 0.00 92 1014.4
20260502210001 23 0.0 0.0 0.00 0.00 0.00 92 1014.4
20260502205001 23 0.0 0.0 0.00 0.00 0.00 92 1014.3
20260502204001 23 0.0 0.0 0.00 0.00 0.00 93 1014.3
20260502203001 23 0.0 0.0 0.00 0.00 0.00 92 1014.3
20260502202001 23 0.0 0.0 0.00 0.00 0.00 92 1014.4
20260502201001 23 0.0 0.0 0.00 0.00 0.00 91 1014.4
20260502200001 23 0.0 0.0 0.00 0.00 0.00 91 1014.4
20260502195001 23 0.0 0.0 0.00 0.00 0.00 91 1014.4
20260502194001 23 0.0 0.0 0.00 0.00 0.00 90 1014.4
20260502193001 23 0.0 0.0 0.00 0.00 0.00 90 1014.5
20260502192001 23 0.0 0.0 0.00 0.00 0.00 90 1014.5
20260502191000 23 0.0 0.0 0.00 0.00 0.00 90 1014.4
20260502190000 23 0.0 0.0 0.00 0.00 0.00 90 1014.4
20260502185000 23 0.0 0.0 0.00 0.00 0.00 90 1014.4
20260502184000 23 0.0 0.0 0.00 0.00 0.00 90 1014.4
20260502183000 23 0.0 0.0 0.00 0.00 0.00 91 1014.5
20260502182000 23 0.0 0.0 0.00 0.00 0.00 91 1014.7
20260502181000 23 0.0 0.0 0.00 0.00 0.00 91 1014.8
20260502164000 24 0.0 0.0 0.00 0.00 0.00 89 1015.6
20260502163002 24 0.0 0.0 0.00 0.00 0.00 88 1015.7
20260502162000 25 0.0 0.0 0.00 0.00 0.00 86 1015.8
20260502161000 25 0.0 0.0 0.00 0.00 0.00 85 1015.8
20260502152000 25 0.0 0.0 0.00 0.00 0.00 87 1015.7
20260502151001 25 0.0 0.0 0.00 0.00 0.00 86 1015.8
20260502123000 25 0.0 0.0 0.00 0.00 0.00 87 1014.8
20260502122000 26 0.0 0.0 0.00 0.00 0.00 86 1014.5
20260502121000 26 0.0 0.0 0.00 0.00 0.00 85 1014.3
20260502115000 25 0.0 0.0 0.00 0.00 0.00 85 1013.9
20260502114001 26 0.0 0.0 0.00 0.00 0.00 85 1013.7
20260502113000 26 0.0 0.0 0.00 0.00 0.00 84 1013.7
20260502112000 26 0.0 0.0 0.00 0.00 0.00 84 1013.6
20260502111000 26 0.0 0.0 0.00 0.00 0.00 83 1013.6
20260502110000 26 0.0 0.0 0.00 0.00 0.00 80 1013.5
20260502105000 26 0.0 0.0 0.00 0.00 0.00 78 1013.3
20260502104000 27 0.0 0.0 0.00 0.00 0.00 73 1013.2
20260502102959 27 0.0 0.0 0.00 0.00 0.00 70 1013.1
20260502101959 27 0.0 0.0 0.00 0.00 0.00 70 1012.9
20260502101000 28 0.0 0.0 0.00 0.00 0.00 70 1012.9
20260502090959 30 0.0 0.0 0.00 0.00 0.00 61 1012.4
20260502071103 35 0.0 0.0 0.00 0.00 0.00 47 1012.8
20260502065102 33 0.0 0.0 0.00 0.00 0.00 51 1013.2
20260502064103 35 0.0 0.0 0.00 0.00 0.00 49 1013.5
20260502063104 35 0.0 0.0 0.00 0.00 0.00 49 1013.7
20260502062102 34 0.0 0.0 0.00 0.00 0.00 51 1013.8
20260502061102 35 0.0 0.0 0.00 0.00 0.00 50 1014.0
20260502055104 34 0.0 0.0 0.00 0.00 0.00 50 1014.3
20260502054102 34 0.0 0.0 0.00 0.00 0.00 50 1014.4
20260502053102 32 0.0 0.0 0.00 0.00 0.00 54 1014.5
20260502052102 33 0.0 0.0 0.00 0.00 0.00 54 1014.7
20260502051102 33 0.0 0.0 0.00 0.00 0.00 52 1014.9
20260502045102 35 0.0 0.0 0.00 0.00 0.00 50 1015.0
20260502044102 34 0.0 0.0 0.00 0.00 0.00 50 1015.1
20260502043102 33 0.0 0.0 0.00 0.00 0.00 52 1015.2
20260502042102 32 0.0 0.0 0.00 0.00 0.00 55 1015.4
20260502041102 32 0.0 0.0 0.00 0.00 0.00 53 1015.6
20260502040052 32 0.0 0.0 0.00 0.00 0.00 56 1015.7
20260502035138 32 0.0 0.0 0.00 0.00 0.00 54 1016.0
20260502034138 32 0.0 0.0 0.00 0.00 0.00 54 1016.0
20260502033145 32 0.0 0.0 0.00 0.00 0.00 53 1016.1